Location: Navarre
(52.9016°N, 113.4144°W)
Time: 13:53:49
(UTC+00:00)

ISS - Pass Details

Date: 04 December 2021
Orbit: 413 x 422 km, 51.6° (Epoch: 18 January)

Event Time Altitude Azimuth Distance (km) Brightness Sun altitude
Rises 01:20:18 0° 280° (W) 2,386 1.3 -17.1°
Reaches altitude 10° 01:22:29 10° 272° (W) 1,517 0.2 -17.4°
Maximum altitude 01:25:41 38° 203° (SSW) 659 -2.5 -17.9°
Enters shadow 01:27:17 23° 149° (SSE) 951 -2.2 -18.1°
